Regional Weather Roundup
Issued by NWS Albany, NY

Home | Current Version | Previous Version | Text Only | Print | Product List | Glossary On
Versions: 1 2 3 4 5 6 7 8 9 10 11 12 13 14 15 16 17 18 19 20 21 22 23 24 25 26 27 28
000
ASUS41 KALY 121710
RWRALY

NEW YORK STATE HOURLY WEATHER ROUNDUP
NATIONAL WEATHER SERVICE ALBANY NY
1200 PM EST TUE DEC 12 2017

NOTE: "FAIR" INDICATES FEW OR NO CLOUDS BELOW 12,000 FEET WITH NO
SIGNIFICANT WEATHER AND/OR NO OBSTRUCTIONS TO VISIBILITY.

NYZ032-033-038>043-046>054-057>066-NYZ062>081-082-084-121800-
EAST


CITY           SKY/WX    TMP DP  RH WIND       PRES   REMARKS
ALBANY         LGT RAIN  35  32  88 S7        29.49F FOG     WCI  29
GLENS FALLS    LGT SNOW  30  29  96 CALM      29.49F FOG
POUGHKEEPSIE   CLOUDY    38  36  92 CALM      29.49F FOG
NEWBURGH       CLOUDY    36  36 100 CALM      29.50F
MONTGOMERY     MIX PCPN  34  33  96 CALM      29.47F FOG
WHITE PLAINS   LGT RAIN  46  41  82 CALM      29.46F
ISLIP          CLOUDY    53  43  68 S12       29.49F
NEW YORK CITY  CLOUDY    51  38  60 SW18G26   29.48F
CENTRAL PARK   CLOUDY    49  38  65 W8G22     29.51F
$$

NYZ005>009-017-018-044>046-055-056-121800-
CENTRAL


CITY           SKY/WX    TMP DP  RH WIND       PRES   REMARKS
FULTON         LGT SNOW  33  31  92 SW7       29.45F FOG     WCI  27
SYRACUSE       LGT SNOW  30  30 100 CALM      29.46S FOG
ROME           LGT SNOW  32  31  96 SE7       29.46F FOG     WCI  26
ELMIRA         CLOUDY    37  29  72 W13       29.46F WCI  29
BINGHAMTON     LGT SNOW  32  29  88 W9        29.40F FOG     WCI  24
$$

NYZ026>034-041>043-087-121800-
NORTH


CITY           SKY/WX    TMP DP  RH WIND       PRES   REMARKS
WATERTOWN      LGT SNOW  26  25  96 NE5       29.43F FOG     WCI  20
FORT DRUM      NOT AVBL
OGDENSBURG     LGT SNOW  22  19  87 NE5       29.47F VSB 1   WCI  16
MASSENA        LGT SNOW  19  17  92 NE12      29.50F FOG     WCI   7
SARANAC LAKE   CLOUDY    30  27  88 CALM      29.37F
PLATTSBURGH    LGT SNOW  32  29  88 S10       29.50F FOG     WCI  24
$$

NYZ001>004-010>016-019>021-085-121800-
WEST


CITY           SKY/WX    TMP DP  RH WIND       PRES   REMARKS
NIAGARA FALLS  LGT SNOW  27  18  69 W18       29.56S WCI  14
BUFFALO        FLURRIES  25  19  78 W15G21    29.57S WCI  13
DUNKIRK        LGT SNOW  25  18  74 W18G28    29.63R WCI  11
JAMESTOWN      LGT SNOW  22  18  85 W18G24    29.56F FOG     WCI   7
WELLSVILLE     LGT SNOW  26  18  71 NW17      29.50R WCI  13
ROCHESTER      LGT SNOW  29  24  82 W20G33    29.52R BLWGSNOWWCI  16
PENN YAN       CLOUDY    34  26  72 W8        29.47S WCI  27
$$

             KEY
       WCI = WIND CHILL INDEX
       VSB = VISIBILITY
       HX  = HEAT INDEX
$$




USA.gov is the U.S. government's official web portal to all federal, state and local government web resources and services.